| time (UTC) | temp F | wind direction | speed MPH | gust MPH | rain 1hr in | rain 24hr in | rain mn in | humidity % | barometer mb |
| 20260905175109 | 57 | 348 | 2.0 | 11.0 | 0.00 | 0.18 | 0.18 | 70 | 1018.1 |
| 20260905174109 | 58 | 334 | 0.0 | 6.0 | 0.00 | 0.18 | 0.18 | 69 | 1018.2 |
| 20260905171110 | 59 | 328 | 0.0 | 1.0 | 0.00 | 0.18 | 0.18 | 67 | 1017.8 |
| 20260905164109 | 60 | 22 | 2.0 | 11.0 | 0.00 | 0.18 | 0.18 | 64 | 1017.3 |
| 20260905163109 | 60 | 328 | 2.0 | 11.0 | 0.00 | 0.18 | 0.18 | 62 | 1017.3 |
| 20260905160109 | 60 | 59 | 1.0 | 8.0 | 0.00 | 0.18 | 0.18 | 63 | 1017.1 |
| 20260905152108 | 61 | 94 | 1.0 | 10.0 | 0.00 | 0.18 | 0.18 | 63 | 1016.8 |
| 20260905150113 | 61 | 306 | 2.0 | 10.0 | 0.00 | 0.18 | 0.18 | 62 | 1016.9 |
| 20260905141113 | 63 | 317 | 1.0 | 7.0 | 0.00 | 0.18 | 0.18 | 62 | 1016.9 |
| 20260905140113 | 64 | 90 | 2.0 | 8.0 | 0.00 | 0.18 | 0.18 | 59 | 1016.9 |
| 20260905132113 | 64 | 61 | 3.0 | 14.0 | 0.00 | 0.19 | 0.18 | 59 | 1016.9 |
| 20260905131112 | 64 | 277 | 3.0 | 14.0 | 0.00 | 0.19 | 0.18 | 62 | 1016.9 |
| 20260905130112 | 64 | 344 | 2.0 | 12.0 | 0.00 | 0.19 | 0.18 | 62 | 1017.0 |
| 20260905124112 | 64 | 216 | 2.0 | 16.0 | 0.00 | 0.19 | 0.18 | 61 | 1017.1 |
| 20260905115112 | 63 | 342 | 2.0 | 7.0 | 0.00 | 0.19 | 0.18 | 65 | 1017.3 |
| 20260905112112 | 63 | 355 | 1.0 | 7.0 | 0.00 | 0.19 | 0.18 | 67 | 1017.2 |
| 20260905111112 | 63 | 5 | 2.0 | 7.0 | 0.00 | 0.19 | 0.18 | 65 | 1017.2 |
| 20260905110112 | 64 | 184 | 3.0 | 11.0 | 0.00 | 0.19 | 0.18 | 63 | 1017.0 |
| 20260905102111 | 63 | 28 | 3.0 | 11.0 | 0.00 | 0.19 | 0.18 | 68 | 1017.0 |
| 20260905095111 | 62 | 304 | 1.0 | 10.0 | 0.00 | 0.19 | 0.18 | 72 | 1017.1 |
| 20260905094111 | 61 | 296 | 2.0 | 7.0 | 0.00 | 0.19 | 0.18 | 74 | 1017.0 |
| 20260905092111 | 60 | 306 | 3.0 | 13.0 | 0.00 | 0.19 | 0.18 | 76 | 1017.0 |
| 20260905091111 | 60 | 327 | 3.0 | 13.0 | 0.00 | 0.19 | 0.18 | 75 | 1016.9 |
| 20260905090111 | 60 | 27 | 3.0 | 10.0 | 0.00 | 0.19 | 0.18 | 80 | 1016.9 |
| 20260905084111 | 60 | 117 | 1.0 | 8.0 | 0.00 | 0.19 | 0.18 | 77 | 1016.8 |
| 20260905081110 | 59 | 131 | 2.0 | 8.0 | 0.00 | 0.19 | 0.18 | 83 | 1016.5 |
| 20260905075110 | 59 | 207 | 0.0 | 5.0 | 0.00 | 0.19 | 0.18 | 88 | 1016.6 |
| 20260905074111 | 58 | 54 | 0.0 | 6.0 | 0.00 | 0.19 | 0.18 | 90 | 1016.4 |
| 20260905071110 | 56 | 76 | 0.0 | 0.0 | 0.00 | 0.19 | 0.18 | 93 | 1016.5 |
| 20260905065110 | 56 | 88 | 1.0 | 7.0 | 0.00 | 0.19 | 0.18 | 95 | 1016.3 |
| 20260905064110 | 55 | 355 | 0.0 | 0.0 | 0.00 | 0.19 | 0.18 | 95 | 1016.3 |
| 20260905063110 | 55 | 360 | 0.0 | 4.0 | 0.00 | 0.19 | 0.18 | 95 | 1016.1 |
| 20260905062110 | 54 | 360 | 0.0 | 2.0 | 0.00 | 0.19 | 0.18 | 95 | 1016.1 |
| 20260905054109 | 54 | 345 | 0.0 | 0.0 | 0.00 | 0.19 | 0.18 | 95 | 1015.8 |
| 20260905052109 | 54 | 344 | 0.0 | 2.0 | 0.00 | 0.19 | 0.18 | 95 | 1015.5 |
| 20260905045109 | 54 | 306 | 1.0 | 6.0 | 0.00 | 0.19 | 0.18 | 94 | 1015.0 |
| 20260905044109 | 54 | 330 | 0.0 | 5.0 | 0.00 | 0.19 | 0.18 | 94 | 1014.9 |
| 20260905043109 | 54 | 330 | 0.0 | 1.0 | 0.00 | 0.19 | 0.18 | 94 | 1014.9 |
| 20260905042109 | 54 | 330 | 0.0 | 0.0 | 0.00 | 0.19 | 0.18 | 94 | 1014.8 |
| 20260905041109 | 54 | 330 | 0.0 | 0.0 | 0.00 | 0.19 | 0.18 | 94 | 1014.8 |
| 20260905035109 | 54 | 330 | 0.0 | 2.0 | 0.00 | 0.19 | 0.18 | 94 | 1014.5 |
| 20260905033109 | 54 | 331 | 0.0 | 1.0 | 0.00 | 0.19 | 0.18 | 94 | 1014.6 |
| 20260905032109 | 54 | 331 | 0.0 | 0.0 | 0.01 | 0.19 | 0.18 | 94 | 1014.1 |
| 20260905031108 | 54 | 331 | 0.0 | 0.0 | 0.01 | 0.19 | 0.18 | 94 | 1014.2 |
| 20260905030108 | 54 | 331 | 0.0 | 0.0 | 0.02 | 0.19 | 0.18 | 94 | 1014.1 |
| 20260905025109 | 54 | 331 | 0.0 | 0.0 | 0.02 | 0.19 | 0.18 | 94 | 1014.2 |
| 20260905024108 | 54 | 331 | 0.0 | 2.0 | 0.02 | 0.19 | 0.18 | 94 | 1014.2 |
| 20260905023108 | 54 | 312 | 0.0 | 2.0 | 0.02 | 0.19 | 0.18 | 94 | 1014.1 |
| 20260905021108 | 54 | 313 | 0.0 | 5.0 | 0.02 | 0.18 | 0.17 | 93 | 1013.7 |
| 20260905020108 | 54 | 313 | 0.0 | 6.0 | 0.02 | 0.17 | 0.17 | 93 | 1013.6 |
| 20260905015109 | 54 | 314 | 0.0 | 0.0 | 0.02 | 0.17 | 0.17 | 93 | 1013.0 |
| 20260905013110 | 54 | 315 | 1.0 | 6.0 | 0.02 | 0.17 | 0.16 | 93 | 1013.1 |
| 20260905012110 | 54 | 319 | 0.0 | 2.0 | 0.03 | 0.17 | 0.16 | 93 | 1013.0 |
| 20260905005110 | 54 | 319 | 0.0 | 0.0 | 0.03 | 0.15 | 0.14 | 92 | 1013.3 |
| 20260905004110 | 54 | 319 | 2.0 | 8.0 | 0.05 | 0.15 | 0.14 | 92 | 1013.4 |
| 20260905003110 | 55 | 337 | 1.0 | 8.0 | 0.04 | 0.14 | 0.13 | 92 | 1013.4 |
| 20260904233110 | 56 | 305 | 4.0 | 16.0 | 0.06 | 0.10 | 0.09 | 91 | 1012.8 |
| 20260904230109 | 57 | 5 | 6.0 | 19.0 | 0.08 | 0.09 | 0.09 | 90 | 1012.6 |
| 20260904221109 | 59 | 286 | 3.0 | 8.0 | 0.01 | 0.02 | 0.01 | 87 | 1011.7 |
| 20260904220109 | 60 | 15 | 2.0 | 7.0 | 0.01 | 0.02 | 0.01 | 86 | 1012.0 |
| 20260904214109 | 59 | 360 | 3.0 | 17.0 | 0.00 | 0.01 | 0.01 | 85 | 1011.2 |
| 20260904212109 | 59 | 308 | 2.0 | 10.0 | 0.00 | 0.01 | 0.01 | 84 | 1011.5 |
| 20260904210114 | 59 | 344 | 1.0 | 5.0 | 0.00 | 0.01 | 0.01 | 82 | 1011.0 |
| 20260904205114 | 59 | 344 | 0.0 | 0.0 | 0.00 | 0.01 | 0.01 | 80 | 1010.8 |
| 20260904204114 | 59 | 344 | 1.0 | 6.0 | 0.00 | 0.01 | 0.01 | 80 | 1010.6 |
| 20260904202114 | 60 | 92 | 0.0 | 0.0 | 0.00 | 0.01 | 0.01 | 77 | 1010.6 |
| 20260904201114 | 61 | 92 | 0.0 | 0.0 | 0.00 | 0.01 | 0.01 | 76 | 1011.0 |
| 20260904194113 | 62 | 347 | 2.0 | 11.0 | 0.00 | 0.01 | 0.01 | 74 | 1011.4 |
| 20260904193113 | 63 | 350 | 0.0 | 6.0 | 0.00 | 0.01 | 0.01 | 76 | 1011.2 |
| 20260904192113 | 63 | 283 | 2.0 | 7.0 | 0.00 | 0.01 | 0.01 | 76 | 1011.1 |
| 20260904190113 | 65 | 316 | 1.0 | 10.0 | 0.00 | 0.01 | 0.01 | 78 | 1011.1 |